Date String (YYYY-MM-DD hh:mm:ss) UTC,Instrument flags,absolute air pressure of the measurement (hPa),sample flow rate (lpm),inlet stack bypass flow (lpm),air temperature of the measurement (°C),ambient temperature measured by the external sensor (°C),aerosol sample conditioner tube jacket temperature (°C),OPC LED temperature (°C),internal box temperature (°C),relative humidity of the measurement (%),span deviation,mass concentration of particles derived from Lorenz-Mie calculation of OPC scattering (μg/m³),mass concentration of particles derived from Lorenz-Mie calculation of OPC scattering (μg/m³),mass concentration of particles derived from Lorenz-Mie calculation of OPC scattering (μg/m³)
DateTimeUTC,F1_M11,P_M11,Q1_M11,Q2_M11,T1_M11,T2_M11,T3_M11,T4_M11,T5_M11,U1_M11,ZSPAN_M11,X2_M11,X0_M11,X1_M11
2023-10-10 02:00:00,SystemResetWarning,0825.8,5.00,000.00,028.2,026.5,000.0,036.7,030.0,11.4,0000.0,0003.72,0011.51,0003.15
2023-10-10 02:01:00,SystemResetWarning,0825.8,5.00,000.00,028.2,026.7,000.0,036.7,030.0,11.3,0000.0,0003.70,0012.05,0003.15
2023-10-10 02:02:00,SystemResetWarning,0825.8,5.01,000.00,028.2,026.8,000.0,036.7,030.0,11.2,0000.0,0003.72,0012.16,0003.16
2023-10-10 02:03:00,SystemResetWarning,0825.8,5.00,000.00,028.3,026.9,000.0,036.7,030.1,11.1,0000.0,0003.77,0012.55,0003.16
2023-10-10 02:04:00,SystemResetWarning,0825.8,4.99,000.00,028.3,027.1,000.0,036.7,030.1,11.1,0000.0,0003.82,0012.45,0003.19
2023-10-10 02:05:00,SystemResetWarning,0825.8,4.99,000.00,028.3,027.1,000.0,036.8,030.2,11.2,0000.0,0003.83,0012.21,0003.22
2023-10-10 02:06:00,SystemResetWarning,0825.8,5.00,000.00,028.4,027.2,000.0,036.8,030.2,11.2,0000.0,0003.85,0012.77,0003.26
2023-10-10 02:07:00,SystemResetWarning,0825.8,5.00,000.00,028.4,027.3,000.0,036.8,030.3,11.2,0000.0,0003.86,0012.72,0003.30
2023-10-10 02:08:00,SystemResetWarning,0825.8,5.01,000.00,028.5,027.4,000.0,036.8,030.3,11.3,0000.0,0003.92,0012.69,0003.35
2023-10-10 02:09:00,SystemResetWarning,0825.7,4.99,000.00,028.5,027.0,000.0,036.8,030.3,11.4,0000.0,0004.00,0012.43,0003.40
2023-10-10 02:10:00,SystemResetWarning,0825.8,5.00,000.00,028.4,025.2,000.0,036.8,030.1,11.4,0000.0,0004.05,0012.45,0003.44
2023-10-10 02:11:00,SystemResetWarning,0825.7,5.02,000.00,028.4,024.5,000.0,036.7,029.9,11.3,0000.0,0004.08,0012.07,0003.47
2023-10-10 02:12:00,SystemResetWarning,0825.7,5.00,000.00,028.3,024.6,000.0,036.7,029.8,11.3,0000.0,0004.14,0012.19,0003.50
2023-10-10 02:13:00,SystemResetWarning,0825.7,5.00,000.00,028.2,024.9,000.0,036.7,029.7,11.6,0000.0,0004.20,0012.32,0003.52
2023-10-10 02:14:00,SystemResetWarning,0825.7,5.00,000.00,028.2,025.3,000.0,036.7,029.8,11.5,0000.0,0004.20,0011.81,0003.55
2023-10-10 02:15:00,SystemResetWarning,0825.7,5.00,000.00,028.1,025.6,000.0,036.7,029.8,11.5,0000.0,0004.18,0011.43,0003.55
2023-10-10 02:16:00,SystemResetWarning,0825.7,4.99,000.00,028.1,025.9,000.0,036.7,029.9,11.5,0000.0,0004.19,0011.19,0003.54
2023-10-10 02:17:00,SystemResetWarning,0825.7,5.00,000.00,028.2,026.2,000.0,036.7,029.9,11.6,0000.0,0004.17,0011.08,0003.53
2023-10-10 02:18:00,SystemResetWarning,0825.7,5.00,000.00,028.2,026.4,000.0,036.7,029.9,11.6,0000.0,0004.15,0011.54,0003.51
2023-10-10 02:19:00,SystemResetWarning,0825.7,5.00,000.00,028.2,026.6,000.0,036.7,030.0,11.5,0000.0,0004.14,0012.02,0003.48
2023-10-10 02:20:00,SystemResetWarning,0825.7,5.01,000.00,028.2,026.8,000.0,036.7,030.0,11.6,0000.0,0004.11,0012.00,0003.44
2023-10-10 02:21:00,SystemResetWarning,0825.7,5.00,000.00,028.3,026.9,000.0,036.7,030.1,11.5,0000.0,0004.09,0012.65,0003.41
2023-10-10 02:22:00,SystemResetWarning,0825.7,5.01,000.00,028.3,027.0,000.0,036.7,030.1,11.4,0000.0,0004.04,0012.68,0003.39
2023-10-10 02:23:00,SystemResetWarning,0825.7,4.99,000.00,028.3,027.1,000.0,036.8,030.2,11.2,0000.0,0003.99,0011.94,0003.37
2023-10-10 02:24:00,SystemResetWarning,0825.7,4.99,000.00,028.4,027.2,000.0,036.8,030.2,11.2,0000.0,0003.94,0011.91,0003.35
2023-10-10 02:25:00,SystemResetWarning,0825.7,5.01,000.00,028.4,027.2,000.0,036.8,030.2,11.1,0000.0,0003.92,0011.89,0003.34
2023-10-10 02:26:00,SystemResetWarning,0825.7,5.01,000.00,028.4,027.3,000.0,036.8,030.3,11.1,0000.0,0003.90,0011.86,0003.33
2023-10-10 02:27:00,SystemResetWarning,0825.7,5.00,000.00,028.5,027.4,000.0,036.8,030.3,11.1,0000.0,0003.88,0012.48,0003.33
2023-10-10 02:28:00,SystemResetWarning,0825.6,4.99,000.00,028.5,027.2,000.0,036.9,030.3,11.1,0000.0,0003.89,0011.82,0003.33
2023-10-10 02:29:00,SystemResetWarning,0825.7,4.99,000.00,028.5,025.4,000.0,036.8,030.2,11.2,0000.0,0003.88,0011.29,0003.33
2023-10-10 02:30:00,SystemResetWarning,0825.6,5.01,000.00,028.4,024.5,000.0,036.8,030.0,11.1,0000.0,0003.85,0011.12,0003.33
2023-10-10 02:31:00,SystemResetWarning,0825.6,5.01,000.00,028.3,024.5,000.0,036.7,029.8,11.1,0000.0,0003.82,0010.29,0003.34
2023-10-10 02:32:00,SystemResetWarning,0825.7,4.99,000.00,028.2,024.8,000.0,036.7,029.7,11.2,0000.0,0003.78,0009.46,0003.34
2023-10-10 02:33:00,SystemResetWarning,0825.6,4.99,000.00,028.2,025.1,000.0,036.7,029.7,11.3,0000.0,0003.83,0009.37,0003.35
2023-10-10 02:34:00,SystemResetWarning,0825.6,5.00,000.00,028.1,025.5,000.0,036.7,029.8,11.2,0000.0,0003.86,0010.17,0003.35
2023-10-10 02:35:00,SystemResetWarning,0825.7,5.01,000.00,028.1,025.8,000.0,036.7,029.8,11.3,0000.0,0003.89,0011.52,0003.35
2023-10-10 02:36:00,SystemResetWarning,0825.7,5.00,000.00,028.2,026.1,000.0,036.7,029.9,11.3,0000.0,0003.91,0012.29,0003.34
2023-10-10 02:37:00,SystemResetWarning,0825.7,5.00,000.00,028.2,026.3,000.0,036.7,029.9,11.2,0000.0,0003.94,0012.66,0003.35
2023-10-10 02:38:00,SystemResetWarning,0825.7,5.00,000.00,028.2,026.5,000.0,036.7,030.0,11.2,0000.0,0003.98,0012.17,0003.35
2023-10-10 02:39:00,SystemResetWarning,0825.7,5.00,000.00,028.2,026.7,000.0,036.7,030.0,11.2,0000.0,0003.97,0012.12,0003.35
2023-10-10 02:40:00,SystemResetWarning,0825.7,5.00,000.00,028.2,026.8,000.0,036.7,030.1,11.2,0000.0,0004.03,0012.73,0003.35
2023-10-10 02:41:00,SystemResetWarning,0825.7,4.99,000.00,028.3,026.9,000.0,036.7,030.1,11.2,0000.0,0004.04,0012.44,0003.36
2023-10-10 02:42:00,SystemResetWarning,0825.7,4.99,000.00,028.3,027.0,000.0,036.8,030.1,11.1,0000.0,0004.03,0012.88,0003.36
2023-10-10 02:43:00,SystemResetWarning,0825.7,5.01,000.00,028.3,027.1,000.0,036.8,030.2,11.1,0000.0,0004.08,0013.67,0003.38
2023-10-10 02:44:00,SystemResetWarning,0825.7,5.00,000.00,028.4,027.2,000.0,036.8,030.2,11.1,0000.0,0004.09,0014.80,0003.39
2023-10-10 02:45:00,SystemResetWarning,0825.7,5.01,000.00,028.4,027.2,000.0,036.8,030.2,11.1,0000.0,0004.08,0014.16,0003.41
2023-10-10 02:46:00,SystemResetWarning,0825.6,5.00,000.00,028.4,027.3,000.0,036.8,030.2,11.2,0000.0,0004.09,0013.07,0003.43
2023-10-10 02:47:00,SystemResetWarning,0825.7,5.01,000.00,028.5,027.3,000.0,036.8,030.3,11.0,0000.0,0004.07,0012.56,0003.45
2023-10-10 02:48:00,SystemResetWarning,0825.7,5.01,000.00,028.5,027.4,000.0,036.9,030.3,11.1,0000.0,0004.05,0012.85,0003.46
2023-10-10 02:49:00,SystemResetWarning,0825.7,4.99,000.00,028.5,027.4,000.0,036.9,030.3,11.2,0000.0,0004.04,0013.45,0003.47
2023-10-10 02:50:00,SystemResetWarning,0825.7,5.00,000.00,028.6,027.1,000.0,036.9,030.3,11.0,0000.0,0004.07,0013.58,0003.50
2023-10-10 02:51:00,SystemResetWarning,0825.7,5.00,000.00,028.5,025.2,000.0,036.8,030.1,11.1,0000.0,0004.09,0012.99,0003.52
2023-10-10 02:52:00,SystemResetWarning,0825.7,5.00,000.00,028.4,024.4,000.0,036.8,029.9,11.1,0000.0,0004.09,0012.76,0003.53
2023-10-10 02:53:00,SystemResetWarning,0825.7,5.01,000.00,028.3,024.5,000.0,036.8,029.8,11.1,0000.0,0004.13,0012.28,0003.55
2023-10-10 02:54:00,SystemResetWarning,0825.7,5.01,000.00,028.2,024.8,000.0,036.8,029.7,11.2,0000.0,0004.10,0011.54,0003.55
2023-10-10 02:55:00,SystemResetWarning,0825.6,4.99,000.00,028.2,025.2,000.0,036.8,029.8,11.3,0000.0,0004.10,0010.23,0003.56
2023-10-10 02:56:00,SystemResetWarning,0825.6,5.00,000.00,028.2,025.5,000.0,036.8,029.8,11.2,0000.0,0004.11,0009.81,0003.56
2023-10-10 02:57:00,SystemResetWarning,0825.7,5.00,000.00,028.2,025.8,000.0,036.8,029.9,11.2,0000.0,0004.11,0009.60,0003.56
2023-10-10 02:58:00,SystemResetWarning,0825.7,5.00,000.00,028.2,026.1,000.0,036.8,029.9,11.3,0000.0,0004.15,0009.30,0003.56
2023-10-10 02:59:00,SystemResetWarning,0825.7,5.00,000.00,028.2,026.3,000.0,036.7,030.0,11.3,0000.0,0004.18,0009.09,0003.56
